Main page
METAR-TAF:

METAR-TAF

Airports :

New Braunfels Regional Airport

New Braunfels, Texas, United States

latitude: 29-42-31N, longitude: 098-02-43W, elevation: 646 ft

Current weather observation

The report was made 18 minutes ago, at 14:34 UTC
Wind 9 mph from the South
Temperature 84°F
Humidity 74%
Pressure 29.82 in. Hg
Visibility: 10 miles
Broken clouds at a height of 1700 ft

METAR: KBAZ 171434Z 17008KT 10SM BKN017 29/24 A2982 RMK AO2 T02890244

Time: 09:52 (14:52 UTC)


TAF: missing

Weather observations and forecasts of more than 4000 airports (METAR and TAF reports).

The available stations are represented by yellow and red dots on the map.

Hover mouse over dot to see the name of the station.

Then click to see weather observations and forecasts.

To change the map : click on the green buttons with a black cross to zoom in, on the green button with a dash to zoom out, or on the green arrows for adjacent maps.


METAR-TAF: